Change the Weather History Date:

Monday, April 22, 2013

  Actual Average Record
Temperature  
Mean Temperature 58 °F -  
Max Temperature 71 °F 69 °F 88 °F (1980)
Min Temperature 45 °F 46 °F 32 °F (1978)
Degree Days  
Heating Degree Days 7    
Growing Degree Days 8 (Base 50)    
Moisture  
Dew Point 41 °F    
Average Humidity 53    
Maximum Humidity 69    
Minimum Humidity 37    
Precipitation  
Precipitation 0.00 in - - ()
Sea Level Pressure  
Sea Level Pressure 30.17 in    
Wind  
Wind Speed 4 mph (SE)    
Max Wind Speed 12 mph    
Max Gust Speed 17 mph    
Visibility 10 miles    
Events      
Averages and records for this station are not official NWS values.
T = Trace of Precipitation, MM = Missing Value Source: NWS Daily Summary

Daily Weather History Graph

Daily Weather History Graph

Search for Another Location

Airport or City:

Trip Planner

Search our weather history database for the weather conditions in past years. The results will help you decide how hot, cold, wet, or windy it might be!

Date:

Astronomy

Apr. 22, 2013 Rise Set
Actual Time 6:09 AM CDT 7:39 PM CDT
Civil Twilight 5:41 AM CDT 8:07 PM CDT
Nautical Twilight 5:08 AM CDT 8:41 PM CDT
Astronomical Twilight 4:32 AM CDT 9:16 PM CDT
Moon 4:30 PM CDT (4/22) 4:01 AM CDT (4/22)
Length of Visible Light 14h 25m
Length of Day
13h 30m
Waxing Gibbous, 88% of the Moon is Illuminated
Apr 22
Waxing Gibbous
Apr 25
Full
May 2
Last Quarter
May 9
New
May 17
First Quarter

Hourly Weather History & Observations

Time (CDT) Temp. Windchill Dew Point Humidity Pressure Visibility Wind Dir Wind Speed Gust Speed Precip Events Conditions
12:15 AM 50.9 °F - 35.1 °F 55% 30.30 in 10.0 mi East 3.5 mph - N/A   Clear
12:35 AM 51.3 °F - 34.7 °F 53% 30.31 in 10.0 mi Calm Calm - N/A   Clear
12:55 AM 50.5 °F - 35.1 °F 55% 30.30 in 10.0 mi East 4.6 mph - N/A   Clear
1:15 AM 50.9 °F - 34.9 °F 54% 30.30 in 10.0 mi East 3.5 mph - N/A   Clear
1:35 AM 50.5 °F - 35.2 °F 56% 30.29 in 10.0 mi East 3.5 mph - N/A   Clear
1:55 AM 49.6 °F - 35.6 °F 59% 30.29 in 10.0 mi East 3.5 mph - N/A   Clear
2:15 AM 49.3 °F - 35.2 °F 58% 30.28 in 10.0 mi East 3.5 mph - N/A   Clear
2:35 AM 48.7 °F - 35.6 °F 60% 30.27 in 10.0 mi East 3.5 mph - N/A   Clear
2:55 AM 48.2 °F - 35.6 °F 62% 30.27 in 10.0 mi East 3.5 mph - N/A   Clear
3:15 AM 48.2 °F - 35.6 °F 62% 30.27 in 10.0 mi East 3.5 mph - N/A   Clear
3:35 AM 47.5 °F - 35.8 °F 64% 30.26 in 10.0 mi East 3.5 mph - N/A   Clear
3:55 AM 47.3 °F - 35.8 °F 64% 30.26 in 10.0 mi East 3.5 mph - N/A   Clear
4:15 AM 46.4 °F 45.2 °F 35.6 °F 66% 30.26 in 10.0 mi East 3.5 mph - N/A   Clear
4:35 AM 46.4 °F 45.2 °F 35.4 °F 66% 30.26 in 10.0 mi East 3.5 mph - N/A   Clear
4:55 AM 46.0 °F 43.9 °F 35.6 °F 67% 30.26 in 10.0 mi East 4.6 mph - N/A   Clear
5:15 AM 46.4 °F - 35.6 °F 66% 30.26 in 10.0 mi Calm Calm - N/A   Clear
5:35 AM 45.5 °F 43.2 °F 35.6 °F 68% 30.25 in 10.0 mi East 4.6 mph - N/A   Clear
5:55 AM 45.5 °F 44.2 °F 35.6 °F 68% 30.25 in 10.0 mi East 3.5 mph - N/A   Clear
6:15 AM 45.0 °F 42.6 °F 35.4 °F 69% 30.25 in 10.0 mi East 4.6 mph - N/A   Clear
6:35 AM 45.3 °F 43.0 °F 35.2 °F 68% 30.25 in 10.0 mi East 4.6 mph - N/A   Clear
6:55 AM 46.4 °F 44.3 °F 35.2 °F 65% 30.25 in 10.0 mi East 4.6 mph - N/A   Clear
7:15 AM 48.0 °F - 35.2 °F 61% 30.26 in 10.0 mi East 4.6 mph - N/A   Clear
7:35 AM 48.9 °F - 35.6 °F 60% 30.26 in 10.0 mi East 6.9 mph - N/A   Clear
7:55 AM 49.8 °F - 35.8 °F 59% 30.25 in 10.0 mi East 5.8 mph - N/A   Clear
8:15 AM 51.1 °F - 36.0 °F 56% 30.25 in 10.0 mi ESE 8.1 mph - N/A   Clear
8:35 AM 52.3 °F - 37.0 °F 56% 30.25 in 10.0 mi ESE 6.9 mph - N/A   Clear
8:55 AM 54.0 °F - 37.6 °F 54% 30.25 in 10.0 mi ESE 9.2 mph - N/A   Clear
9:15 AM 55.2 °F - 38.5 °F 53% 30.25 in 10.0 mi ESE 5.8 mph - N/A   Clear
9:35 AM 57.2 °F - 38.7 °F 50% 30.24 in 10.0 mi ESE 5.8 mph - N/A   Clear
9:55 AM 58.6 °F - 39.9 °F 50% 30.24 in 10.0 mi ESE 4.6 mph - N/A   Clear
10:15 AM 60.1 °F - 40.6 °F 49% 30.24 in 10.0 mi SE 6.9 mph - N/A   Clear
10:35 AM 61.2 °F - 41.7 °F 49% 30.24 in 10.0 mi SE 5.8 mph - N/A   Clear
10:55 AM 62.2 °F - 42.1 °F 48% 30.23 in 10.0 mi SE 4.6 mph - N/A   Clear
11:15 AM 64.0 °F - 43.5 °F 47% 30.22 in 10.0 mi SSE 4.6 mph - N/A   Clear
11:35 AM 64.6 °F - 43.9 °F 47% 30.22 in 10.0 mi South 5.8 mph - N/A   Clear
11:55 AM 65.5 °F - 45.3 °F 48% 30.21 in 10.0 mi SSW 5.8 mph - N/A   Clear
12:15 PM 66.0 °F - 43.9 °F 45% 30.20 in 10.0 mi South 6.9 mph - N/A   Clear
12:35 PM 67.5 °F - 45.5 °F 45% 30.19 in 10.0 mi SSW 4.6 mph - N/A   Clear
12:55 PM 68.0 °F - 44.4 °F 43% 30.19 in 10.0 mi Calm Calm - N/A   Clear
1:15 PM 68.2 °F - 45.1 °F 43% 30.18 in 10.0 mi South 6.9 mph - N/A   Clear
1:35 PM 69.1 °F - 46.4 °F 44% 30.17 in 10.0 mi SSW 5.8 mph - N/A   Clear
1:55 PM 69.1 °F - 43.3 °F 39% 30.15 in 10.0 mi SSW 3.5 mph - N/A   Clear
2:15 PM 69.6 °F - 43.5 °F 39% 30.15 in 10.0 mi South 5.8 mph - N/A   Clear
2:35 PM 70.2 °F - 43.7 °F 38% 30.14 in 10.0 mi SE 9.2 mph - N/A   Clear
2:55 PM 70.3 °F - 44.2 °F 39% 30.13 in 10.0 mi SSE 6.9 mph - N/A   Clear
3:15 PM 71.2 °F - 44.8 °F 39% 30.12 in 10.0 mi SSE 8.1 mph - N/A   Clear
3:35 PM 70.9 °F - 43.5 °F 37% 30.10 in 10.0 mi SSE 10.4 mph - N/A   Clear
3:55 PM 70.9 °F - 44.8 °F 39% 30.10 in 10.0 mi SE 11.5 mph 17.3 mph N/A   Clear
4:15 PM 70.9 °F - 44.4 °F 39% 30.08 in 10.0 mi SE 8.1 mph - N/A   Clear
4:35 PM 71.1 °F - 45.5 °F 40% 30.08 in 10.0 mi ESE 8.1 mph - N/A   Clear
4:55 PM 70.5 °F - 44.8 °F 40% 30.06 in 10.0 mi SE 8.1 mph - N/A   Clear
5:15 PM 70.7 °F - 45.3 °F 40% 30.06 in 10.0 mi ESE 9.2 mph - N/A   Clear
5:35 PM 70.2 °F - 45.5 °F 41% 30.05 in 10.0 mi SE 5.8 mph - N/A   Clear
5:55 PM 69.8 °F - 44.8 °F 41% 30.05 in 10.0 mi SE 8.1 mph - N/A   Clear
6:15 PM 70.2 °F - 45.3 °F 41% 30.04 in 10.0 mi SE 8.1 mph - N/A   Clear
6:35 PM 70.3 °F - 45.1 °F 40% 30.04 in 10.0 mi SE 5.8 mph - N/A   Clear
6:55 PM 69.3 °F - 46.0 °F 43% 30.04 in 10.0 mi SE 8.1 mph - N/A   Clear
7:15 PM 68.4 °F - 46.9 °F 46% 30.04 in 10.0 mi SSE 3.5 mph - N/A   Clear
7:35 PM 68.0 °F - 45.9 °F 45% 30.04 in 10.0 mi SSE 4.6 mph - N/A   Clear
7:55 PM 66.6 °F - 45.7 °F 47% 30.04 in 10.0 mi SSE 3.5 mph - N/A   Clear
8:15 PM 63.3 °F - 47.5 °F 56% 30.05 in 10.0 mi Calm Calm - N/A   Clear
8:35 PM 62.4 °F - 47.5 °F 58% 30.05 in 10.0 mi Calm Calm - N/A   Clear
8:55 PM 61.3 °F - 47.8 °F 61% 30.06 in 10.0 mi SE 4.6 mph - N/A   Clear
9:15 PM 61.7 °F - 47.5 °F 60% 30.07 in 10.0 mi Calm Calm - N/A   Clear
9:35 PM 59.5 °F - 48.6 °F 67% 30.07 in 10.0 mi Calm Calm - N/A   Clear
9:55 PM 59.9 °F - 47.5 °F 64% 30.08 in 10.0 mi SE 4.6 mph - N/A   Clear
10:15 PM 59.2 °F - 48.6 °F 68% 30.08 in 10.0 mi SE 3.5 mph - N/A   Clear
10:35 PM 60.6 °F - 47.1 °F 61% 30.07 in 10.0 mi SE 4.6 mph - N/A   Clear
10:55 PM 61.3 °F - 47.1 °F 60% 30.07 in 10.0 mi ESE 4.6 mph - N/A   Clear
11:15 PM 61.2 °F - 47.5 °F 61% 30.06 in 10.0 mi SE 5.8 mph - N/A   Scattered Clouds
11:35 PM 62.4 °F - 46.8 °F 57% 30.06 in 10.0 mi SE 4.6 mph - N/A   Mostly Cloudy
11:55 PM 61.9 °F - 46.9 °F 58% 30.06 in 10.0 mi SE 4.6 mph - N/A   Scattered Clouds